Location: Unspecified
(0.0000°N, 0.0000°E)
Time: 06:29:00
(UTC+00:00)

Transit 4A - Pass Details

Date: 27 November 2019
Orbit: 870 x 975 km, 66.8° (Epoch: 11 December)

Event Time Altitude Azimuth Distance (km) Brightness Sun altitude
Rises 19:42:13 0° 236° (SW) 3,666 12.3 -26.5°
Reaches altitude 10° 19:46:11 10° 260° (W) 2,709 11.2 -27.5°
Maximum altitude 19:49:18 14° 290° (WNW) 2,414 10.6 -28.2°
Drops below altitude 10° 19:52:24 10° 320° (NW) 2,684 10.5 -28.9°
Enters shadow 19:56:08 - 343° (NNW) 3,549 10.9 -29.7°
Sets 19:56:20 0° 344° (NNW) 3,607 - -29.8°
